Location: Clarion
(42.7316°N, 93.7330°W)
Time: 09:44:27
(UTC+00:00)

Cosmos 1340 Rocket - Pass Details

Date: 22 April 2026
Orbit: 484 x 512 km, 81.2° (Epoch: 17 May)

Event Time Altitude Azimuth Distance (km) Brightness Sun altitude
Rises 10:46:43 0° 351° (N) 2,592 6.5 -6.9°
Reaches altitude 10° 10:48:50 10° 353° (N) 1,709 5.6 -6.6°
Maximum altitude 10:52:35 77° 80° (E) 519 2.9 -6.0°
Drops below altitude 10° 10:56:20 10° 167° (SSE) 1,711 5.3 -5.3°
Sets 10:58:28 0° 168° (SSE) 2,596 6.2 -5.0°
